map of MDQ home
Great Circle Mapper logo
MDQ - Airport
Location
City:  Mar del Plata, Buenos Aires, Argentina
ICAO / IATA:SAZM / MDQ

Details
Type:Airport (Aerodrome, Airfield)
Use:Public/Civil, Military
Latitude:3756'03"S (-37.934166)
Longitude:5734'24"W (-57.573332)
Datum:WGS 1984
Elevation:71 ft (22 m)
Variation:7.19W (WMM2015 magnetic declination)
-0.15 annual change
Runways:1
Longest:7218 × 197 ft (2200 × 60 m), paved

Time
Time Zone:UTC-3
Local Time:

Weather
METAR:SAZM 281400Z 11012KT 9999 BKN018 16/09 Q1026
TAF:SAZM 281100Z 2812/2912 14015KT 9999 SCT015 TX17/2818Z TN13/2910Z
BECMG 2815/2818 09015KT BKN015
BECMG 2903/2906 05015KT 8000 BR SCT010 BKN025 OVC030
TEMPO 2909/2912 02015G25KT 7000 RADZ SCT015 BKN025 OVC040

Related Locations
Nearby:
Farthest:WEH: 12378 mi / 19920 km
Weihai (Wendeng) [Dashuipo], Shandong, CN

Find:

   beyond  
but within

Other Information
Maps:
NOTAMs:
Links:
Sources:

  
flag of Argentina
flag of Buenos Aires
  

Sectional Chart

Flight Planning
at skyvector.com

Satellite Image

Google Maps Satellite View

 

Copyright © 2004-2015 Karl L. Swartz. All rights reserved.
The Great Circle Mapper name and logo are trademarks of the Great Circle Mapper.
All other trademarks mentioned herein belong to their respective owners.
Please see credits for attibutions and further copyright information.

  Follow gcmap on Facebook Follow gcmap on Twitter Follow gcmap on Google+

hCard Microformat

Geo Microformat